Tracking 30995 objects as of 5-Jul-2025
HD Live streaming from Space Station
objects crossing your sky now

CZ-2 DEB

Track CZ-2 DEB now!
10-day predictions


NORAD ID: 38661
Int'l Code: 2012-029C
Perigee: 1,098.9 km
Apogee: 1,286.5 km
Inclination: 100.1 °
Period: 109.1 minutes
Semi major axis: 7563 km
RCS: 0.0137 m2 (small)
Launch date: May 29, 2012
Source: People's Republic of China (PRC)
Launch site: Taiyaun Space Center, China (TSC)

Note: This is SATELLITE DEBRIS
Your satellite tracking list
FOX-1CLIFF (AO-95)
Track 1 satellite(s)




NASA's NSSDC Master Catalog

Two Line Element Set (TLE):
1 38661U 12029C   25185.44233320  .00000066  00000-0  26016-3 0  9990
2 38661 100.1065 247.6276 0124014  28.9235 331.8682 13.19769173627681
Source of the keplerian elements: AFSPC